When you browse on this site, cookies collect data to enhance your experience and personalize the content and advertising you see.
Visit our Privacy Policy to learn more. By continuing to use the site, you agree to this use of cookies and data.
  • In Hungary
  • List of Countries
  • For 7 days
  • Water Temperature
  • Weather Map
  • News
  • Weather Widgets
  • user-avatar
    Login

    Hourly Weather Malynychi

    Today, 17 November, Sunday

    Time Temperature Precipitation Wind Pressure Humidity
    00:00 +10°C° 0 mm 4 mps 738 mmHg 93%
    01:00 +8°C° 0 mm 4 mps 738 mmHg 94%
    02:00 +8°C° 0 mm 4 mps 738 mmHg 94%
    03:00 +8°C° 0 mm 4 mps 738 mmHg 95%
    04:00 +8°C° 0 mm 5 mps 738 mmHg 96%
    05:00 +8°C° 0 mm 5 mps 738 mmHg 97%
    06:00 +9°C° 0 mm 5 mps 738 mmHg 96%
    07:00 +9°C° 0 mm 6 mps 738 mmHg 95%
    08:00 +9°C° 0 mm 6 mps 739 mmHg 93%
    09:00 +9°C° 0 mm 6 mps 739 mmHg 90%
    10:00 +9°C° 0 mm 6 mps 739 mmHg 86%
    11:00 +10°C° 0 mm 7 mps 739 mmHg 83%
    12:00 +10°C° 0 mm 7 mps 739 mmHg 77%
    13:00 +11°C° 0 mm 7 mps 738 mmHg 71%
    14:00 +13°C° 0 mm 6 mps 738 mmHg 69%
    15:00 +11°C° 0 mm 6 mps 738 mmHg 70%
    16:00 +10°C° 0 mm 6 mps 738 mmHg 71%
    17:00 +9°C° 0 mm 6 mps 738 mmHg 72%
    18:00 +9°C° 0 mm 6 mps 738 mmHg 69%
    19:00 +9°C° 0 mm 6 mps 738 mmHg 67%
    20:00 +8°C° 0 mm 6 mps 738 mmHg 65%
    21:00 +8°C° 0 mm 7 mps 738 mmHg 64%
    22:00 +8°C° 0 mm 7 mps 737 mmHg 62%
    23:00 +6°C° 0 mm 7 mps 737 mmHg 61%

    Tomorrow, 18 November, Monday

    Time Temperature Precipitation Wind Pressure Humidity
    00:00 +6°C° 0 mm 7 mps 737 mmHg 62%
    01:00 +6°C° 0 mm 7 mps 737 mmHg 62%
    02:00 +5°C° 0 mm 6 mps 737 mmHg 62%
    03:00 +5°C° 0 mm 6 mps 736 mmHg 63%
    04:00 +4°C° 0 mm 6 mps 736 mmHg 65%
    05:00 +4°C° 0 mm 6 mps 736 mmHg 67%
    06:00 +4°C° 0 mm 6 mps 736 mmHg 70%
    07:00 +4°C° 0 mm 6 mps 736 mmHg 73%
    08:00 +3°C° 0 mm 6 mps 736 mmHg 76%
    09:00 +5°C° 0 mm 6 mps 736 mmHg 73%
    10:00 +6°C° 0 mm 7 mps 735 mmHg 71%
    11:00 +8°C° 0 mm 7 mps 735 mmHg 69%
    12:00 +8°C° 0 mm 7 mps 735 mmHg 70%
    13:00 +8°C° 0 mm 7 mps 735 mmHg 70%
    14:00 +9°C° 0 mm 7 mps 735 mmHg 71%
    15:00 +8°C° 0 mm 7 mps 735 mmHg 76%
    16:00 +8°C° 0 mm 7 mps 735 mmHg 80%
    17:00 +7°C° 0 mm 6 mps 735 mmHg 85%
    18:00 +8°C° 0 mm 6 mps 735 mmHg 85%
    19:00 +8°C° 0 mm 5 mps 735 mmHg 86%
    20:00 +10°C° 0 mm 4 mps 735 mmHg 86%
    21:00 +10°C° 0 mm 4 mps 736 mmHg 88%
    22:00 +9°C° 0 mm 3 mps 736 mmHg 90%
    23:00 +9°C° 0 mm 3 mps 736 mmHg 93%

    Day after tomorrow, 19 November, Tuesday

    Time Temperature Precipitation Wind Pressure Humidity
    00:00 +9°C° 0 mm 3 mps 736 mmHg 94%
    01:00 +9°C° 0 mm 2 mps 737 mmHg 95%
    02:00 +9°C° 0 mm 2 mps 737 mmHg 96%
    03:00 +9°C° 0 mm 2 mps 737 mmHg 96%
    04:00 +8°C° 0 mm 2 mps 737 mmHg 96%
    05:00 +8°C° 0 mm 2 mps 737 mmHg 96%
    06:00 +8°C° 0 mm 2 mps 738 mmHg 95%
    07:00 +9°C° 0 mm 1 mps 738 mmHg 95%
    08:00 +8°C° 0 mm 0 mps 738 mmHg 94%
    09:00 +11°C° 0 mm 1 mps 739 mmHg 88%
    10:00 +12°C° 0 mm 1 mps 739 mmHg 82%
    11:00 +13°C° 0 mm 2 mps 739 mmHg 76%
    12:00 +14°C° 0 mm 2 mps 739 mmHg 72%
    13:00 +15°C° 0 mm 2 mps 739 mmHg 68%
    14:00 +15°C° 0 mm 1 mps 739 mmHg 65%
    15:00 +14°C° 0 mm 2 mps 739 mmHg 71%
    16:00 +13°C° 0 mm 2 mps 739 mmHg 77%
    17:00 +12°C° 0 mm 2 mps 739 mmHg 83%
    18:00 +12°C° 0 mm 2 mps 739 mmHg 86%
    19:00 +10°C° 0 mm 2 mps 739 mmHg 89%
    20:00 +9°C° 0 mm 2 mps 739 mmHg 92%
    21:00 +9°C° 0 mm 2 mps 739 mmHg 93%
    22:00 +9°C° 0 mm 2 mps 739 mmHg 94%
    23:00 +9°C° 0 mm 2 mps 739 mmHg 96%

    20 November, Wednesday

    Time Temperature Precipitation Wind Pressure Humidity
    00:00 +9°C° 0 mm 2 mps 739 mmHg 96%
    01:00 +9°C° 0 mm 3 mps 739 mmHg 96%
    02:00 +10°C° 0 mm 3 mps 739 mmHg 97%
    03:00 +10°C° 0 mm 3 mps 739 mmHg 96%
    04:00 +10°C° 0 mm 3 mps 738 mmHg 96%
    05:00 +10°C° 0 mm 4 mps 738 mmHg 96%
    06:00 +10°C° 0 mm 4 mps 738 mmHg 95%
    07:00 +10°C° 0 mm 4 mps 738 mmHg 93%
    08:00 +10°C° 0 mm 4 mps 738 mmHg 92%
    09:00 +10°C° 0 mm 5 mps 738 mmHg 90%
    10:00 +10°C° 0 mm 5 mps 738 mmHg 89%
    11:00 +10°C° 0 mm 6 mps 738 mmHg 87%
    12:00 +10°C° 0 mm 6 mps 738 mmHg 85%
    13:00 +10°C° 0 mm 6 mps 738 mmHg 83%
    14:00 +10°C° 0 mm 6 mps 738 mmHg 80%
    15:00 +10°C° 0 mm 6 mps 738 mmHg 78%
    16:00 +10°C° 0 mm 6 mps 738 mmHg 77%
    17:00 +10°C° 0 mm 6 mps 737 mmHg 75%
    18:00 +9°C° 0 mm 6 mps 738 mmHg 75%
    19:00 +9°C° 0 mm 6 mps 738 mmHg 76%
    20:00 +8°C° 0 mm 6 mps 738 mmHg 76%
    21:00 +8°C° 0 mm 6 mps 738 mmHg 73%
    22:00 +8°C° 0 mm 6 mps 738 mmHg 70%
    23:00 +7°C° 0 mm 6 mps 738 mmHg 67%

    21 November, Thursday

    Time Temperature Precipitation Wind Pressure Humidity
    00:00 +6°C° 0 mm 7 mps 738 mmHg 67%
    01:00 +6°C° 0 mm 7 mps 738 mmHg 67%
    02:00 +5°C° 0 mm 7 mps 738 mmHg 67%
    03:00 +5°C° 0 mm 7 mps 738 mmHg 71%
    04:00 +4°C° 0 mm 7 mps 738 mmHg 74%
    05:00 +3°C° 0 mm 7 mps 738 mmHg 77%
    06:00 +3°C° 0 mm 7 mps 738 mmHg 75%
    07:00 +3°C° 0 mm 7 mps 739 mmHg 73%
    08:00 +2°C° 0 mm 7 mps 739 mmHg 71%
    09:00 +1°C° 0.1 mm 8 mps 739 mmHg 73%
    10:00 +1°C° 0.1 mm 8 mps 739 mmHg 75%
    11:00 +1°C° 0.1 mm 8 mps 740 mmHg 78%
    12:00 +1°C° 0.3 mm 8 mps 739 mmHg 79%
    13:00 +1°C° 0.3 mm 8 mps 739 mmHg 80%
    14:00 +1°C° 0.3 mm 8 mps 739 mmHg 81%
    15:00 +2°C° 0.1 mm 7 mps 739 mmHg 80%
    16:00 0°C° 0.1 mm 7 mps 739 mmHg 80%
    17:00 0°C° 0.1 mm 7 mps 739 mmHg 79%
    18:00 0°C° 0 mm 7 mps 739 mmHg 78%
    19:00 0°C° 0 mm 7 mps 739 mmHg 77%
    20:00 0°C° 0 mm 7 mps 740 mmHg 75%
    21:00 -1°C° 0 mm 8 mps 740 mmHg 75%
    22:00 -1°C° 0 mm 8 mps 740 mmHg 74%
    23:00 -1°C° 0 mm 8 mps 740 mmHg 74%

    22 November, Friday

    Time Temperature Precipitation Wind Pressure Humidity
    00:00 -1°C° 0 mm 8 mps 740 mmHg 72%
    01:00 -1°C° 0 mm 8 mps 740 mmHg 70%
    02:00 -1°C° 0 mm 7 mps 740 mmHg 69%
    03:00 -2°C° 0 mm 7 mps 740 mmHg 68%
    04:00 -2°C° 0 mm 7 mps 740 mmHg 67%
    05:00 -2°C° 0 mm 7 mps 740 mmHg 66%
    06:00 -3°C° 0 mm 7 mps 741 mmHg 65%
    07:00 -3°C° 0 mm 7 mps 741 mmHg 65%
    08:00 -3°C° 0 mm 7 mps 741 mmHg 64%
    09:00 -3°C° 0 mm 7 mps 741 mmHg 64%
    10:00 -3°C° 0 mm 7 mps 741 mmHg 63%
    11:00 -3°C° 0 mm 7 mps 741 mmHg 63%
    12:00 -2°C° 0 mm 6 mps 741 mmHg 61%
    13:00 -2°C° 0 mm 6 mps 741 mmHg 60%
    14:00 -1°C° 0 mm 6 mps 741 mmHg 58%
    15:00 -2°C° 0 mm 6 mps 741 mmHg 58%
    16:00 -2°C° 0 mm 6 mps 741 mmHg 58%
    17:00 -3°C° 0 mm 6 mps 741 mmHg 57%
    18:00 -3°C° 0 mm 6 mps 741 mmHg 56%
    19:00 -4°C° 0 mm 6 mps 741 mmHg 55%
    20:00 -4°C° 0 mm 6 mps 741 mmHg 54%
    21:00 -4°C° 0 mm 6 mps 741 mmHg 54%
    22:00 -5°C° 0 mm 6 mps 741 mmHg 54%
    23:00 -5°C° 0 mm 5 mps 741 mmHg 54%
    Show more